Location: Buisson
(44.2787°N, 4.9969°E)
Time: 01:26:21
(UTC+00:00)

Cosmos 1378 - Pass Details

Date: 18 April 2021
Orbit: 490 x 500 km, 82.5° (Epoch: 07 May)

Event Time Altitude Azimuth Distance (km) Brightness Sun altitude
Exits shadow 03:22:20 30° 252° (WSW) 903 3.9 -15.3°
Maximum altitude 03:23:14 35° 283° (WNW) 812 3.8 -15.2°
Drops below altitude 10° 03:26:40 10° 351° (N) 1,692 6.1 -14.7°
Sets 03:28:55 0° 1° (N) 2,579 7.2 -14.3°
